Weather History for Minneapolis, MN

Change the Weather History Date:

Tuesday, May 7, 2013

  Actual Average Record
Temperature  
Mean Temperature 66 °F 56 °F  
Max Temperature 78 °F 67 °F 92 °F (1963)
Min Temperature 53 °F 46 °F 27 °F (1885)
Degree Days  
Heating Degree Days 0 9  
Month to date heating degree days 111 70  
Since 1 July heating degree days 7527 7388  
Cooling Degree Days 1 1  
Month to date cooling degree days 1 5  
Year to date cooling degree days 4 10  
Growing Degree Days 16 (Base 50)    
Moisture  
Dew Point 46 °F    
Average Humidity 55    
Maximum Humidity 83    
Minimum Humidity 27    
Precipitation  
Precipitation 0.00 in 0.11 in 1.31 in (1933)
Month to date precipitation 0.63 0.77  
Year to date precipitation 10.08 6.99  
Snow  
Snow 0.00 in 0.00 in 0.10 in (1885)
Month to date snowfall 0.5 0.0  
Since 1 July snowfall 67.7 54.4  
Snow Depth 0.00 in    
Sea Level Pressure  
Sea Level Pressure 30.01 in    
Wind  
Wind Speed 4 mph (South)    
Max Wind Speed 13 mph    
Max Gust Speed 20 mph    
Visibility 10 miles    
Events      
T = Trace of Precipitation, MM = Missing Value Source: NWS Daily Summary

Daily Weather History Graph

Daily Weather History Graph

Search for Another Location

Airport:

Trip Planner

Search our weather history database for the weather conditions in past years. The results will help you decide how hot, cold, wet, or windy it might be!

Date:

Astronomy

May. 07, 2013 Rise Set
Actual Time 5:53 AM CDT 8:25 PM CDT
Civil Twilight 5:20 AM CDT 8:59 PM CDT
Nautical Twilight 4:39 AM CDT 9:40 PM CDT
Astronomical Twilight 3:52 AM CDT 10:28 PM CDT
Moon 4:34 AM CDT (5/7) 6:21 PM CDT (5/7)
Length of Visible Light 15h 38m
Length of Day
14h 32m
Waning Crescent, 5% of the Moon is Illuminated
May 7
Waning Crescent
May 9
New
May 17
First Quarter
May 24
Full
May 31
Last Quarter

Hourly Weather History & Observations

Time (CDT) Temp. Dew Point Humidity Pressure Visibility Wind Dir Wind Speed Gust Speed Precip Events Conditions
12:53 AM 64.0 °F 46.9 °F 54% 30.04 in 10.0 mi SSW 3.5 mph - N/A   Mostly Cloudy
1:53 AM 61.0 °F 46.9 °F 60% 30.04 in 10.0 mi Calm Calm - N/A   Scattered Clouds
2:53 AM 57.9 °F 46.9 °F 67% 30.04 in 10.0 mi Calm Calm - N/A   Mostly Cloudy
3:53 AM 57.9 °F 46.9 °F 67% 30.04 in 10.0 mi Calm Calm - N/A   Mostly Cloudy
4:53 AM 55.0 °F 48.0 °F 77% 30.04 in 10.0 mi Calm Calm - N/A   Scattered Clouds
5:53 AM 53.1 °F 48.0 °F 83% 30.05 in 8.0 mi Calm Calm - N/A   Mostly Cloudy
6:53 AM 54.0 °F 48.0 °F 80% 30.06 in 8.0 mi Calm Calm - N/A   Mostly Cloudy
7:53 AM 55.9 °F 50.0 °F 80% 30.06 in 8.0 mi South 3.5 mph - N/A   Mostly Cloudy
8:53 AM 60.1 °F 51.1 °F 72% 30.07 in 8.0 mi Calm Calm - N/A   Scattered Clouds
9:53 AM 66.0 °F 51.1 °F 59% 30.06 in 10.0 mi South 3.5 mph - N/A   Partly Cloudy
10:53 AM 72.0 °F 48.9 °F 44% 30.05 in 10.0 mi Calm Calm - N/A   Scattered Clouds
11:53 AM 75.0 °F 43.0 °F 32% 30.03 in 10.0 mi SE 9.2 mph - N/A   Scattered Clouds
12:53 PM 75.0 °F 39.9 °F 28% 30.02 in 10.0 mi South 8.1 mph - N/A   Scattered Clouds
1:53 PM 75.9 °F 42.1 °F 30% 30.01 in 10.0 mi SSE 6.9 mph 19.6 mph N/A   Scattered Clouds
2:53 PM 75.9 °F 41.0 °F 29% 30.00 in 10.0 mi SE 9.2 mph - N/A   Scattered Clouds
3:53 PM 75.9 °F 43.0 °F 31% 29.98 in 10.0 mi WNW 3.5 mph - N/A   Scattered Clouds
4:53 PM 75.9 °F 43.0 °F 31% 29.97 in 10.0 mi East 5.8 mph - N/A   Scattered Clouds
5:53 PM 78.1 °F 42.1 °F 28% 29.96 in 10.0 mi WSW 4.6 mph - N/A   Scattered Clouds
6:53 PM 77.0 °F 43.0 °F 30% 29.96 in 10.0 mi SSW 8.1 mph - N/A   Scattered Clouds
7:53 PM 75.9 °F 44.1 °F 32% 29.96 in 10.0 mi SSW 6.9 mph - N/A   Scattered Clouds
8:53 PM 72.0 °F 46.0 °F 40% 29.96 in 10.0 mi SSE 4.6 mph - N/A   Scattered Clouds
9:53 PM 66.9 °F 46.9 °F 49% 29.97 in 10.0 mi SE 6.9 mph - N/A   Scattered Clouds
10:53 PM 70.0 °F 46.9 °F 44% 29.97 in 10.0 mi South 5.8 mph - N/A   Scattered Clouds
11:53 PM 66.9 °F 48.0 °F 51% 29.96 in 10.0 mi South 4.6 mph - N/A   Clear